When you browse on this site, cookies collect data to enhance your experience and personalize the content and advertising you see.
Visit our Privacy Policy to learn more. By continuing to use the site, you agree to this use of cookies and data.
  • In Portugal
  • List of Countries
  • For 7 days
  • Water Temperature
  • Weather Map
  • Weather Widgets
  • user-avatar
    Login

    Hourly Weather San Juan

    Today, 17 February, Monday

    Time Temperature Precipitation Wind Pressure Humidity
    00:00 +32°C° 0.1 mm 2 mps 699 mmHg 52%
    01:00 +31°C° 0 mm 1 mps 699 mmHg 57%
    02:00 +30°C° 0 mm 1 mps 699 mmHg 59%
    03:00 +30°C° 0 mm 1 mps 699 mmHg 60%
    04:00 +30°C° 0 mm 1 mps 698 mmHg 62%
    05:00 +30°C° 0 mm 1 mps 699 mmHg 59%
    06:00 +31°C° 0 mm 1 mps 699 mmHg 56%
    07:00 +32°C° 0 mm 1 mps 699 mmHg 53%
    08:00 +35°C° 0 mm 2 mps 699 mmHg 44%
    09:00 +37°C° 0 mm 2 mps 700 mmHg 36%
    10:00 +39°C° 0 mm 2 mps 700 mmHg 27%
    11:00 +41°C° 0 mm 4 mps 700 mmHg 25%
    12:00 +42°C° 0 mm 6 mps 700 mmHg 23%
    13:00 +44°C° 0 mm 8 mps 699 mmHg 20%
    14:00 +43°C° 0 mm 9 mps 699 mmHg 24%
    15:00 +42°C° 0 mm 10 mps 699 mmHg 28%
    16:00 +41°C° 0 mm 12 mps 699 mmHg 31%
    17:00 +38°C° 0 mm 11 mps 700 mmHg 34%
    18:00 +34°C° 0 mm 11 mps 701 mmHg 37%
    19:00 +32°C° 0 mm 11 mps 702 mmHg 39%
    20:00 +31°C° 0 mm 11 mps 703 mmHg 38%
    21:00 +29°C° 0 mm 11 mps 704 mmHg 38%
    22:00 +27°C° 0 mm 11 mps 706 mmHg 37%
    23:00 +26°C° 0 mm 10 mps 706 mmHg 36%

    Tomorrow, 18 February, Tuesday

    Time Temperature Precipitation Wind Pressure Humidity
    00:00 +26°C° 0 mm 9 mps 706 mmHg 35%
    01:00 +24°C° 0 mm 8 mps 707 mmHg 34%
    02:00 +23°C° 0 mm 7 mps 707 mmHg 35%
    03:00 +23°C° 0 mm 7 mps 707 mmHg 37%
    04:00 +22°C° 0 mm 6 mps 707 mmHg 39%
    05:00 +22°C° 0 mm 5 mps 707 mmHg 36%
    06:00 +23°C° 0 mm 4 mps 708 mmHg 32%
    07:00 +23°C° 0 mm 4 mps 708 mmHg 29%
    08:00 +25°C° 0 mm 4 mps 708 mmHg 27%
    09:00 +26°C° 0 mm 3 mps 708 mmHg 26%
    10:00 +27°C° 0 mm 3 mps 708 mmHg 24%
    11:00 +29°C° 0 mm 3 mps 707 mmHg 23%
    12:00 +30°C° 0 mm 2 mps 706 mmHg 22%
    13:00 +31°C° 0 mm 2 mps 706 mmHg 22%
    14:00 +31°C° 0 mm 2 mps 705 mmHg 21%
    15:00 +32°C° 0 mm 2 mps 704 mmHg 21%
    16:00 +32°C° 0 mm 2 mps 704 mmHg 20%
    17:00 +31°C° 0 mm 2 mps 704 mmHg 22%
    18:00 +31°C° 0 mm 2 mps 704 mmHg 23%
    19:00 +30°C° 0 mm 2 mps 704 mmHg 25%
    20:00 +29°C° 0 mm 2 mps 704 mmHg 26%
    21:00 +28°C° 0 mm 1 mps 704 mmHg 28%
    22:00 +27°C° 0 mm 1 mps 705 mmHg 30%
    23:00 +27°C° 0 mm 1 mps 704 mmHg 31%

    Day after tomorrow, 19 February, Wednesday

    Time Temperature Precipitation Wind Pressure Humidity
    00:00 +26°C° 0 mm 1 mps 704 mmHg 32%
    01:00 +26°C° 0 mm 1 mps 703 mmHg 33%
    02:00 +25°C° 0 mm 1 mps 703 mmHg 34%
    03:00 +25°C° 0 mm 1 mps 703 mmHg 36%
    04:00 +24°C° 0 mm 1 mps 703 mmHg 38%
    05:00 +25°C° 0 mm 1 mps 703 mmHg 35%
    06:00 +27°C° 0 mm 1 mps 704 mmHg 32%
    07:00 +28°C° 0 mm 1 mps 704 mmHg 30%
    08:00 +29°C° 0 mm 1 mps 704 mmHg 28%
    09:00 +31°C° 0 mm 1 mps 704 mmHg 25%
    10:00 +32°C° 0 mm 2 mps 704 mmHg 23%
    11:00 +35°C° 0 mm 2 mps 704 mmHg 22%
    12:00 +36°C° 0 mm 3 mps 703 mmHg 20%
    13:00 +37°C° 0 mm 4 mps 703 mmHg 18%
    14:00 +37°C° 0 mm 4 mps 703 mmHg 17%
    15:00 +39°C° 0 mm 5 mps 702 mmHg 17%
    16:00 +39°C° 0 mm 6 mps 702 mmHg 16%
    17:00 +37°C° 0 mm 5 mps 702 mmHg 17%
    18:00 +35°C° 0 mm 5 mps 703 mmHg 19%
    19:00 +34°C° 0 mm 4 mps 703 mmHg 20%
    20:00 +33°C° 0 mm 4 mps 704 mmHg 25%
    21:00 +32°C° 0 mm 5 mps 705 mmHg 30%
    22:00 +30°C° 0 mm 5 mps 706 mmHg 35%
    23:00 +30°C° 0 mm 5 mps 706 mmHg 35%

    20 February, Thursday

    Time Temperature Precipitation Wind Pressure Humidity
    00:00 +30°C° 0 mm 6 mps 706 mmHg 35%
    01:00 +29°C° 0 mm 6 mps 706 mmHg 34%
    02:00 +28°C° 0 mm 6 mps 706 mmHg 33%
    03:00 +27°C° 0 mm 7 mps 706 mmHg 32%
    04:00 +26°C° 0 mm 7 mps 706 mmHg 31%
    05:00 +26°C° 0 mm 7 mps 706 mmHg 31%
    06:00 +26°C° 0 mm 7 mps 707 mmHg 30%
    07:00 +26°C° 0 mm 7 mps 707 mmHg 30%
    08:00 +27°C° 0 mm 7 mps 707 mmHg 28%
    09:00 +28°C° 0 mm 7 mps 708 mmHg 25%
    10:00 +31°C° 0 mm 8 mps 708 mmHg 23%
    11:00 +32°C° 0 mm 8 mps 708 mmHg 22%
    12:00 +33°C° 0 mm 8 mps 707 mmHg 22%
    13:00 +34°C° 0 mm 8 mps 707 mmHg 21%
    14:00 +34°C° 0 mm 8 mps 706 mmHg 22%
    15:00 +34°C° 0 mm 8 mps 706 mmHg 22%
    16:00 +33°C° 0 mm 8 mps 706 mmHg 22%
    17:00 +32°C° 0 mm 8 mps 706 mmHg 25%
    18:00 +31°C° 0 mm 8 mps 707 mmHg 27%
    19:00 +29°C° 0 mm 7 mps 708 mmHg 29%
    20:00 +28°C° 0 mm 7 mps 708 mmHg 28%
    21:00 +27°C° 0 mm 7 mps 709 mmHg 28%
    22:00 +26°C° 0 mm 7 mps 710 mmHg 27%
    23:00 +26°C° 0 mm 6 mps 710 mmHg 26%

    21 February, Friday

    Time Temperature Precipitation Wind Pressure Humidity
    00:00 +24°C° 0 mm 6 mps 710 mmHg 25%
    01:00 +23°C° 0 mm 5 mps 710 mmHg 25%
    08:00 +23°C° 0 mm 5 mps 711 mmHg 24%
    09:00 +23°C° 0 mm 4 mps 711 mmHg 24%
    10:00 +23°C° 0 mm 4 mps 710 mmHg 23%
    11:00 +25°C° 0 mm 4 mps 710 mmHg 22%
    12:00 +27°C° 0 mm 3 mps 709 mmHg 21%
    13:00 +28°C° 0 mm 2 mps 709 mmHg 19%
    14:00 +28°C° 0 mm 2 mps 708 mmHg 20%
    15:00 +29°C° 0 mm 2 mps 708 mmHg 20%
    16:00 +29°C° 0 mm 2 mps 707 mmHg 21%
    17:00 +28°C° 0 mm 2 mps 707 mmHg 23%
    18:00 +27°C° 0 mm 1 mps 708 mmHg 25%
    19:00 +26°C° 0 mm 1 mps 708 mmHg 26%
    20:00 +26°C° 0 mm 1 mps 708 mmHg 28%
    21:00 +25°C° 0 mm 1 mps 708 mmHg 30%
    22:00 +24°C° 0 mm 1 mps 709 mmHg 31%
    23:00 +24°C° 0 mm 1 mps 708 mmHg 35%

    22 February, Saturday

    Time Temperature Precipitation Wind Pressure Humidity
    00:00 +24°C° 0 mm 2 mps 708 mmHg 38%
    01:00 +23°C° 0 mm 2 mps 707 mmHg 42%
    02:00 +23°C° 0 mm 2 mps 707 mmHg 43%
    03:00 +23°C° 0 mm 2 mps 707 mmHg 45%
    04:00 +21°C° 0 mm 2 mps 706 mmHg 47%
    05:00 +23°C° 0 mm 2 mps 707 mmHg 44%
    06:00 +24°C° 0 mm 2 mps 707 mmHg 41%
    07:00 +25°C° 0 mm 2 mps 707 mmHg 38%
    08:00 +26°C° 0 mm 2 mps 707 mmHg 35%
    09:00 +28°C° 0 mm 2 mps 707 mmHg 32%
    10:00 +29°C° 0 mm 2 mps 707 mmHg 29%
    11:00 +30°C° 0 mm 2 mps 706 mmHg 27%
    12:00 +31°C° 0 mm 2 mps 705 mmHg 25%
    13:00 +32°C° 0 mm 2 mps 705 mmHg 24%
    14:00 +34°C° 0 mm 2 mps 704 mmHg 23%
    15:00 +34°C° 0 mm 3 mps 704 mmHg 23%
    16:00 +34°C° 0 mm 3 mps 703 mmHg 23%
    17:00 +33°C° 0 mm 3 mps 704 mmHg 26%
    18:00 +31°C° 0 mm 3 mps 704 mmHg 29%
    19:00 +29°C° 0 mm 3 mps 704 mmHg 33%
    20:00 +28°C° 0 mm 4 mps 704 mmHg 35%
    21:00 +28°C° 0 mm 5 mps 705 mmHg 37%
    22:00 +27°C° 0 mm 6 mps 705 mmHg 39%
    23:00 +26°C° 0 mm 6 mps 705 mmHg 40%
    Show more